Home   Weather   Antwerp   Past weeks
Flag for Belgium

Past Weather in Antwerp, Belgium — Yesterday and Last 2 Weeks

Now
37 °F

Clear.


Feels Like: 34 °F
Forecast: 50 / 42 °F
Wind: 5 mph from Southeast

Location: Antwerp / Deurne

Current Time: Nov 22, 2019 at 5:27:56 am

Latest Report: Nov 22, 2019 at 4:20 am


Visibility: 3 mi

Pressure: 29.62 "Hg

Humidity: 93%

Dew Point: 36 °F

Location of AntwerpLocation

Past Weather in Antwerp — Graph

°F

Antwerp Temperature Yesterday

Maximum temperature yesterday: 37 °F (at 1:50 pm)
Minimum temperature yesterday: 28 °F (at 4:20 am)
Average temperature yesterday: 33 °F

High & Low Weather Summary for the Past Weeks

 TemperatureHumidityPressure
High52 °F (Nov 7, 2:20 pm)100% (Nov 8, 5:20 am)30.09 "Hg (Nov 8, 5:20 am)
Low25 °F (Nov 20, 5:20 am)57% (Nov 19, 3:20 pm)29.33 "Hg (Nov 7, 10:20 am)
Average40 °F86%29.72 "Hg
* Reported Nov 7 4:20 am — Nov 22 4:20 am, Antwerp. Weather by CustomWeather, © 2019

Note: Actual official high and low records may vary slightly from our data, if they occured in-between our weather recording intervals... More about our weather records

Advertising

Antwerp Weather History for the Previous 24 Hours

Scroll right to see more
 ConditionsComfort  
Time TempWeatherWind HumidityBarometerVisibility
4:20 am
Fri, Nov 22
37 °FClear.5 mph93%29.62 "Hg3 mi
3:50 am37 °FSprinkles. Overcast.5 mph93%29.62 "Hg3 mi
3:20 am36 °FPassing clouds.5 mph100%29.62 "Hg3 mi
2:50 am37 °FClear.5 mph93%29.62 "Hg3 mi
2:20 am36 °FClear.5 mph100%29.62 "Hg3 mi
1:50 am36 °FClear.5 mph93%29.62 "Hg2 mi
1:20 am36 °FSprinkles. Passing clouds.5 mph93%29.65 "Hg2 mi
12:50 am36 °FClear.3 mph93%29.65 "Hg2 mi
12:20 am34 °FFog.5 mph93%29.65 "Hg2 mi
11:50 pm
Thu, Nov 21
32 °FIce fog.6 mph93%29.65 "Hg2 mi
11:20 pm32 °FIce fog.5 mph93%29.65 "Hg2 mi
10:50 pm32 °FPassing clouds.5 mph93%29.65 "HgN/A
10:20 pm34 °FPassing clouds.3 mph93%29.65 "HgN/A
9:50 pm32 °FPassing clouds.5 mph100%29.65 "HgN/A
9:20 pm34 °FClear.6 mph93%29.65 "Hg10 mi
8:50 pm34 °FClear.5 mph93%29.68 "Hg10 mi
8:20 pm34 °FClear.5 mph93%29.68 "Hg10 mi
7:50 pm34 °FClear.6 mph93%29.68 "Hg10 mi
6:50 pm34 °FClear.7 mph93%29.68 "Hg6 mi
6:20 pm34 °FClear.5 mph93%29.68 "Hg6 mi
5:50 pm34 °FClear.5 mph93%29.68 "Hg6 mi
5:20 pm36 °FClear.5 mph87%29.68 "Hg5 mi
4:50 pm36 °FClear.7 mph93%29.71 "Hg5 mi
4:20 pm37 °FClear.6 mph87%29.71 "Hg6 mi
3:50 pm37 °FPassing clouds.8 mph87%29.71 "Hg6 mi
3:20 pm37 °FPassing clouds.7 mph93%29.71 "Hg6 mi
2:50 pm37 °FScattered clouds.6 mph87%29.71 "Hg4 mi
2:20 pm37 °FPassing clouds.5 mph87%29.71 "Hg4 mi
1:50 pm37 °FPartly sunny.8 mph87%29.71 "Hg4 mi
1:20 pm36 °FPartly sunny.6 mph93%29.74 "Hg4 mi
12:50 pm36 °FPartly sunny.8 mph93%29.74 "Hg4 mi
12:20 pm36 °FPartly sunny.9 mph93%29.77 "Hg4 mi
11:50 am34 °FFog.7 mph93%29.77 "Hg3 mi
11:20 am34 °FFog.7 mph93%29.77 "Hg3 mi
10:50 am34 °FFog.7 mph87%29.80 "Hg2 mi
10:20 am32 °FIce fog.8 mph93%29.80 "Hg2 mi
9:50 am32 °FIce fog.9 mph93%29.80 "Hg2 mi
9:20 am32 °FIce fog.8 mph93%29.80 "Hg1 mi
8:50 am32 °FIce fog.8 mph93%29.80 "Hg1 mi
8:20 am32 °FIce fog.9 mph93%29.80 "Hg1 mi
7:50 am32 °FIce fog.7 mph93%29.80 "Hg1 mi
6:50 am30 °FIce fog.6 mph93%29.80 "Hg2 mi
6:20 am30 °FIce fog.7 mph93%29.80 "Hg2 mi
5:50 am30 °FIce fog.7 mph93%29.83 "Hg2 mi
5:20 am28 °FIce fog.8 mph93%29.83 "Hg2 mi
Weather by CustomWeather, © 2019

See weather overview